Location: Pian di Sc�
(43.6333°N, 11.5500°E)
Time: 17:50:28
(UTC+00:00)

Cosmos 1937 Rocket - Pass Details

Date: 07 August 2020
Orbit: 747 x 780 km, 74.0° (Epoch: 18 September)

Event Time Altitude Azimuth Distance (km) Brightness Sun altitude
Exits shadow 02:06:53 28° 186° (S) 1,418 4.4 -18.9°
Maximum altitude 02:09:41 73° 108° (ESE) 819 3.6 -18.5°
Drops below altitude 10° 02:15:00 10° 24° (NNE) 2,342 7.1 -17.9°
Sets 02:17:24 0° 23° (NNE) 3,273 8.0 -17.6°
